Regional Weather Roundup
Issued by NWS Cleveland, OH

Home | Current Version | Previous Version | Graphics & Text | Print | Product List | Glossary On
Versions: 1 2 3 4 5 6 7 8 9 10 11 12 13 14 15 16 17 18 19 20 21 22 23 24 25 26 27 28 29 30 31 32 33 34 35 36 37 38 39 40 41 42 43 44 45 46 47 48 49 50
000
ASUS41 KCLE 250710
RWRCLE
OHIO REGIONAL WEATHER ROUNDUP
NATIONAL WEATHER SERVICE CLEVELAND, OH
300 AM EDT MON MAY 25 2015

NOTE: "FAIR" INDICATES FEW OR NO CLOUDS BELOW 12,000 FEET WITH NO
SIGNIFICANT WEATHER AND/OR OBSTRUCTIONS TO VISIBILITY.

OHZ001>008-015>018-024>027-034-035-043-044-250800-
   NORTHWEST OHIO

CITY           SKY/WX    TMP DP  RH WIND       PRES   REMARKS
DEFIANCE       CLEAR     70  52  52 S10       30.03F
FINDLAY        CLEAR     66  51  58 S10       30.06F
TOLEDO EXPRESS PTCLDY    67  50  54 S7        30.04F
TOLEDO EXEC    PTCLDY    69  49  48 S14       30.05F
LIMA           PTCLDY    68  50  52 S12       30.07F
$$

OHZ009>014-019>023-028>033-038-089-250800-
   NORTHEAST OHIO

CITY           SKY/WX    TMP DP  RH WIND       PRES   REMARKS
CLE-HOPKINS    MOCLDY    66  52  60 S9        30.11F
CLE-LAKEFRONT  CLEAR     69  50  50 SE8       30.08F
CUY CO. ARPT   NOT AVBL
LORAIN-ELYRIA  CLEAR     67  53  61 S12       30.09F
ASHTABULA      PTCLDY    63  47  55 S9        30.14F
AKRON-CANTON   CLEAR     64  51  62 S8        30.14F
WOOSTER        CLEAR     57  51  80 SE6       30.13F
MANSFIELD      CLEAR     66  53  63 S9        30.12F
YOUNGSTOWN     PTCLDY    60  45  57 SE7       30.15F
$$

OHZ042-051>053-060>062-070>072-077>081-250800-
  SOUTHWEST OHIO

CITY           SKY/WX    TMP DP  RH WIND       PRES   REMARKS
CINC-COVINGTON MOCLDY    70  55  59 S10       30.09F
CINC-LUNKEN    MOCLDY    62  56  80 CALM      30.10F
HAMILTON       MOCLDY    72  55  55 S3        30.09F
DAYTON         PTCLDY    72  52  49 S10       30.10F
WRIGHT-PAT AFB PTCLDY    65  53  64 SW1       30.09F
DAYTON GENERAL MOCLDY    67  52  58 S7        30.09F
WILMINGTON     PTCLDY    67  50  54 S7        30.12F
$$

OHZ036-037-039>041-045>050-054>059-063>069-073>076-082>088-250800-
  CENTRAL AND SOUTHEAST OHIO

CITY           SKY/WX    TMP DP  RH WIND       PRES   REMARKS
COLUMBUS       PTCLDY    66  54  65 SE3       30.12F
OSU AIRPORT    CLEAR     68  53  58 S9        30.11F
BOLTON FIELD   NOT AVBL
RICKENBACK AFB CLEAR     63  54  71 CALM      30.11F
NEWARK         CLEAR     57  54  89 CALM      30.13F
MARION         CLEAR     65  53  65 S9        30.10F
LANCASTER      CLEAR     58  54  86 S3        30.13F
ZANESVILLE     CLEAR     61  52  72 CALM      30.14F
NEW PHILLY     CLEAR     60  54  80 CALM      30.15F
$$



USA.gov is the U.S. government's official web portal to all federal, state and local government web resources and services.